Regional Weather Roundup
Issued by NWS

Home | Current Version | Previous Version | Graphics & Text | Print | Product List | Glossary On
Versions: 1 2 3 4 5 6 7 8 9 10 11 12 13 14 15 16 17 18 19 20 21 22 23 24 25 26 27 28 29 30 31 32 33 34 35 36 37 38 39 40 41 42 43 44 45 46 47 48 49 50
952
ASUS43 KLMK 240302
RWRKY
KENTUCKY REGIONAL WEATHER ROUNDUP
NATIONAL WEATHER SERVICE LOUISVILLE KY
1000 PM EST THU FEB 23 2017

NOTE "FAIR" INDICATES FEW OR NO CLOUDS BELOW 12,000 FEET
WITH NO SIGNIFICANT WEATHER AND/OR OBSTRUCTIONS TO VISIBILITY.

KYZ001>023-026-027-061>063-070>075-240400-
WESTERN AND SOUTH CENTRAL KENTUCKY

CITY           SKY/WX    TMP DP  RH WIND       PRES   REMARKS
PADUCAH        PTCLDY    66  54  65 S14       29.63S
HENDERSON      PTCLDY    63  52  67 SE6       29.66S
OWENSBORO      PTCLDY    64  55  72 SE12      29.69F
HOPKINSVILLE   CLEAR     66  55  68 S7        29.71S
BOWLING GREEN  PTCLDY    63  53  70 SE7       29.75S
GLASGOW        NOT AVBL
$$

KYZ024-025-028>034-038-045-046-053-240400-
NORTH CENTRAL KENTUCKY

CITY           SKY/WX    TMP DP  RH WIND       PRES   REMARKS
LOUISVILLE/SDF MOCLDY    62  54  74 SE7       29.73F
LOUISVILLE/LOU PTCLDY    66  55  67 SE5       29.74S
FORT KNOX      CLOUDY    62  55  77 SE6       29.73S
$$

KYZ035>037-039>044-047>052-055>060-089>105-240400-
NORTHEAST KENTUCKY

CITY           SKY/WX    TMP DP  RH WIND       PRES   REMARKS
LEXINGTON      CLOUDY    63  54  72 SE8       29.78S
COVINGTON      MOCLDY    63  57  81 S13       29.76S
FRANKFORT      MOCLDY    62  54  74 SE6       29.75S
$$

KYZ054-064>069-076>088-106>120-240400-
SOUTHEAST KENTUCKY

CITY           SKY/WX    TMP DP  RH WIND       PRES   REMARKS
JACKSON        CLEAR     62  53  72 SE6       29.83R
LONDON         CLEAR     55  49  80 CALM      29.82S
SOMERSET       CLEAR     59  50  72 CALM      29.81S
MIDDLESBORO    CLOUDY    53  51  95 CALM      29.85S
MONTICELLO     CLEAR     52  48  86 W9        29.82S
$$





USA.gov is the U.S. government's official web portal to all federal, state and local government web resources and services.